This is the latest recevied weather packets stored in our database for station/object K6CED. If no packets are shown the sender has not sent any weather packets the latest 10 day(s).
| Time | Temp. | Humidity | Pressure | Rain* | Wind** | Luminosity | Snow |
|---|---|---|---|---|---|---|---|
| 1788492392 | 18.89° C | 76% | 1015.1 hPa | 0 mm | - | 0 W/m² | - |
| 1788492091 | 18.89° C | 75% | 1015 hPa | 0 mm | - | 0 W/m² | - |
| 1788491790 | 18.89° C | 73% | 1014.8 hPa | 0 mm | - | 0 W/m² | - |
| 1788491486 | 18.89° C | 72% | 1015 hPa | 0 mm | - | 0 W/m² | - |
| 1788491182 | 19.44° C | 70% | 1014.8 hPa | 0 mm | - | 0 W/m² | - |
| 1788490877 | 19.44° C | 69% | 1014.8 hPa | 0 mm | - | 0 W/m² | - |
| 1788490573 | 19.44° C | 68% | 1014.7 hPa | 0 mm | - | 0 W/m² | - |
| 1788490267 | 20° C | 68% | 1014.6 hPa | 0 mm | - | 0 W/m² | - |
| 1788489968 | 20° C | 69% | 1014.5 hPa | 0 mm | - | 0 W/m² | - |
| 1788489664 | 20° C | 69% | 1014.3 hPa | 0 mm | - | 0 W/m² | - |
| 1788489360 | 20° C | 69% | 1014.5 hPa | 0 mm | - | 0 W/m² | - |
| 1788489056 | 20° C | 69% | 1014.6 hPa | 0 mm | - | 0 W/m² | - |
| 1788488750 | 20° C | 68% | 1014.6 hPa | 0 mm | - | 0 W/m² | - |
| 1788488448 | 20° C | 67% | 1014.7 hPa | 0 mm | - | 1 W/m² | - |
| 1788488143 | 20.56° C | 66% | 1014.4 hPa | 0 mm | - | 2 W/m² | - |
| 1788487837 | 20.56° C | 66% | 1014.4 hPa | 0 mm | - | 5 W/m² | - |
| 1788487532 | 20.56° C | 65% | 1014.3 hPa | 0 mm | - | 8 W/m² | - |
| 1788487227 | 21.11° C | 65% | 1014.6 hPa | 0 mm | - | 11 W/m² | - |
| 1788486922 | 21.11° C | 64% | 1014.4 hPa | 0 mm | - | 14 W/m² | - |
| 1788486621 | 21.67° C | 62% | 1014.6 hPa | 0 mm | - | 18 W/m² | - |
| 1788486315 | 21.67° C | 62% | 1014.6 hPa | 0 mm | - | 21 W/m² | - |
| 1788486011 | 22.22° C | 59% | 1014.6 hPa | 0 mm | - | 24 W/m² | - |
| 1788485707 | 22.22° C | 57% | 1014.5 hPa | 0 mm | - | 32 W/m² | - |
| 1788485404 | 22.22° C | 58% | 1014.4 hPa | 0 mm | - | 36 W/m² | - |
| 1788485102 | 22.78° C | 61% | 1014.5 hPa | 0 mm | - | 40 W/m² | - |
* Rain latest hour (hover to see other rain measurements)
** Current wind speed in m/s (hover to see current wind gust speed)